Dewpoint
47 47 47 47 46 47 47 47 47 46 45 45 46 46 45 44 44 44 43 43 43 43 44 44 44 44 43 42 41 39 39 38 37 36 36 35 34 35 34 33 33 33 32 31 31 31 32 31 30 29 29 28 27 26 25 25 25 26 26 26 25 26 26 24 23 23 25 26 25 26 27 26 25 25 26 26 27 27 29 26 25 26 26 26 26
47 47 46 46 46 46 46 46 46 46 45 44 45 45 44 43 43 42 42 42 41 42 42 42 41 41 40 39 39 38 38 37 36 35 35 34 34 34 33 33 33 32 32 32 31 31 31 31 30 29 28 29 27 27 25 25 25 25 25 26 25 26 26 26 25 25 25 25 25 26 26 27 26 25 28 28 29 27 27 27 28 25 25 25 25
47 47 47 46 46 45 45 45 45 45 44 44 44 44 43 42 41 41 40 39 39 40 41 40 39 38 38 38 38 37 37 36 35 35 35 34 34 33 32 33 33 32 32 32 31 31 31 31 30 29 28 28 27 26 26 25 25 25 25 25 25 25 25 25 25 24 26 26 27 27 26 26 26 26 25 26 26 26 26 26 26 26 25 25 25
48 47 47 46 46 46 45 44 44 44 43 43 43 43 42 41 40 40 39 38 38 38 38 38 37 37 37 37 37 37 36 36 34 35 34 34 32 32 32 32 32 32 32 31 31 31 31 31 29 28 28 28 27 26 26 26 26 26 25 25 26 25 25 24 25 24 25 27 27 27 27 28 28 27 27 28 28 27 26 25 25 25 24 24 23
48 48 47 47 46 46 45 44 43 42 42 42 42 41 40 40 38 39 38 37 37 36 36 37 37 37 37 36 36 36 35 35 34 34 33 33 33 32 32 32 32 31 31 31 31 31 31 31 29 29 29 29 27 27 27 26 26 27 26 26 26 25 24 24 23 22 24 24 25 27 27 28 28 27 27 28 26 25 24 26 25 25 24 24 23
48 48 48 47 46 46 45 44 43 42 42 41 41 40 39 38 37 37 37 36 36 36 36 36 36 36 36 36 35 35 35 34 34 33 33 32 32 32 32 31 31 31 30 30 30 30 31 30 29 30 30 29 28 28 27 26 26 27 26 26 26 26 25 23 24 23 23 23 25 26 27 28 28 27 26 26 25 24 24 25 23 23 23 25 26
48 48 48 47 46 46 45 44 43 42 41 41 40 39 38 37 37 36 36 36 35 35 35 35 35 35 35 35 34 34 33 33 33 33 33 32 32 32 31 31 30 30 30 30 30 30 30 30 29 30 30 30 29 28 28 27 27 27 27 26 26 27 27 26 25 25 24 24 24 25 25 25 26 27 25 23 24 25 23 23 24 25 24 24 27
47 47 46 46 46 46 45 44 43 42 41 40 39 38 37 36 36 36 35 35 35 35 34 34 35 35 35 34 34 33 33 33 33 32 32 32 32 31 31 31 30 30 29 30 30 30 30 30 30 30 30 29 29 29 29 28 28 26 26 26 27 27 26 25 25 24 24 23 25 25 23 25 26 25 24 25 24 23 22 22 23 25 27 26 24
46 45 45 45 46 45 45 43 42 41 39 38 37 36 36 35 35 35 35 35 35 35 34 34 34 34 33 33 33 33 32 32 32 32 32 32 32 31 31 31 30 30 29 29 29 29 28 29 29 29 29 30 31 30 30 30 28 27 25 26 26 26 23 24 23 23 23 25 25 24 26 25 24 24 24 22 20 24 23 22 24 24 24 24 26
44 44 44 44 45 44 44 42 41 39 37 36 36 35 35 35 34 34 34 34 34 34 34 34 33 33 33 33 32 32 32 32 32 34 34 32 32 31 31 31 30 30 29 29 28 28 28 28 29 31 31 31 31 32 33 33 31 30 27 27 26 26 26 25 25 26 27 26 28 28 27 28 28 27 24 23 24 24 24 23 23 23 23 23 24
42 43 43 43 43 42 42 40 38 37 36 35 35 34 34 34 34 34 34 34 33 33 33 33 33 33 33 32 32 32 32 32 34 36 37 36 32 32 31 31 30 30 30 29 29 28 28 28 28 30 30 31 31 33 34 35 33 33 31 31 30 28 26 25 26 26 27 28 27 26 27 27 28 27 26 27 26 26 25 24 23 23 24 24 22
41 42 42 42 41 40 40 38 37 36 35 35 34 34 34 34 33 33 33 33 33 33 33 33 33 33 32 32 32 32 32 33 36 38 38 38 34 32 31 31 30 30 30 30 29 29 28 28 28 29 29 30 30 32 33 34 34 34 34 35 34 33 32 28 26 25 26 26 25 27 28 29 29 29 27 26 26 25 26 26 26 25 24 23 24
40 40 40 40 39 39 38 37 36 35 35 34 34 34 33 33 33 33 33 33 32 32 32 32 32 32 32 32 32 32 32 34 38 36 36 37 37 33 31 31 31 30 30 30 30 29 29 28 28 29 29 31 31 30 31 32 34 34 34 34 34 35 35 34 33 29 27 27 27 29 31 31 28 28 29 28 29 30 31 30 27 25 25 24 24
39 39 38 38 38 37 37 36 36 35 35 34 34 33 33 33 33 33 33 32 32 32 32 31 32 31 32 32 32 32 31 34 37 36 36 37 37 35 31 31 31 30 30 30 29 29 29 29 29 28 28 30 29 29 29 29 29 30 29 28 27 32 35 35 34 33 31 31 30 30 30 30 30 29 29 31 29 30 29 26 24 23 23 23 23
38 38 38 38 37 37 36 36 35 35 34 34 33 33 33 33 32 32 32 32 32 32 31 31 31 31 31 31 31 31 31 35 36 36 36 37 37 35 31 31 30 30 30 29 29 29 29 29 29 29 29 29 29 29 28 28 27 28 26 25 26 28 31 32 33 33 32 30 30 29 29 31 32 31 30 30 30 29 27 25 25 25 27 26 27
38 38 37 37 37 36 36 36 35 34 34 33 33 33 33 33 32 32 31 31 31 31 31 31 31 30 31 31 31 31 31 35 36 36 37 38 37 31 30 30 30 29 29 29 29 29 29 29 29 28 29 29 32 33 31 28 26 26 26 25 26 27 29 31 32 32 30 30 30 30 30 30 34 31 30 29 29 29 29 29 29 27 27 29 28
37 37 37 37 37 36 36 35 35 34 33 33 33 33 33 32 32 31 31 31 31 30 31 31 31 31 30 30 30 30 30 34 36 36 37 38 35 30 30 30 29 29 29 29 29 29 29 29 29 29 29 29 33 35 34 31 26 26 26 26 26 26 27 28 33 35 35 35 35 34 34 32 32 32 33 33 32 30 28 27 26 25 25 23 23
37 37 37 37 37 36 35 35 34 34 33 33 33 33 33 32 32 31 31 30 30 30 30 30 30 30 30 30 30 29 29 33 36 37 37 37 33 30 30 29 29 29 29 29 29 29 29 30 29 29 29 29 34 35 35 31 26 26 26 26 25 25 25 26 29 31 33 33 33 32 31 30 32 32 32 31 30 33 26 25 23 22 22 22 23
36 36 37 37 36 36 35 35 34 34 33 33 33 32 32 32 31 30 30 30 30 30 29 29 29 29 29 29 29 29 29 32 36 36 37 36 33 30 30 29 29 28 29 28 28 29 28 30 31 30 30 31 35 36 36 31 27 27 27 27 26 25 26 26 27 25 23 22 23 25 25 29 27 25 26 31 32 33 28 27 26 25 25 25 25
36 37 37 36 36 35 35 34 34 33 33 33 33 32 32 31 30 30 30 29 29 28 28 28 28 28 28 28 29 29 29 32 34 36 36 36 34 30 30 29 28 29 29 28 28 27 28 29 31 33 33 34 35 37 36 33 28 27 27 27 26 25 24 24 25 24 23 24 22 23 24 23 25 26 27 27 27 26 25 24 23 25 25 25 26
36 36 36 36 35 34 34 34 34 33 33 33 32 32 31 30 29 29 29 28 27 27 27 27 27 27 27 28 28 29 29 31 33 36 36 36 35 33 30 30 29 29 29 29 29 29 29 29 30 33 35 35 36 37 37 35 32 27 28 28 26 24 25 24 26 28 23 22 23 22 23 24 27 28 27 25 23 23 24 28 26 25 26 26 26
37 35 35 35 34 34 34 34 33 33 33 32 31 31 30 30 29 29 28 26 27 26 26 26 26 26 26 27 27 28 29 31 33 35 36 36 36 34 30 30 30 30 30 29 29 29 29 30 30 32 35 35 35 36 37 35 34 27 27 31 31 32 26 25 24 24 23 23 23 24 23 24 23 22 20 20 21 21 19 19 21 20 20 20 22
36 35 34 34 33 33 33 33 33 32 32 31 31 30 29 29 29 28 27 26 26 26 25 25 25 25 26 27 27 28 29 31 33 33 35 36 36 36 34 32 35 31 30 29 30 30 30 31 31 32 34 34 35 36 37 35 34 29 31 33 33 33 30 25 25 24 23 24 24 24 23 22 20 18 17 16 15 16 16 16 17 18 21 23 25
35 34 34 33 33 33 33 33 33 32 32 31 30 30 29 28 28 26 26 25 24 24 23 25 24 24 24 25 27 28 29 30 32 33 34 36 38 36 35 35 35 31 31 30 31 31 31 31 31 33 34 34 35 36 36 34 31 32 33 33 33 32 27 25 24 24 23 22 23 22 21 18 18 15 15 15 15 14 15 15 15 15 18 20 21
35 34 33 33 33 33 33 33 32 32 32 31 30 29 28 28 26 26 27 25 24 23 23 24 23 23 23 24 25 27 29 30 31 33 34 35 36 36 36 35 35 33 31 30 30 31 31 32 33 34 34 34 35 35 34 33 33 33 33 32 31 26 25 23 24 22 23 23 22 19 18 16 17 13 16 16 16 15 14 12 13 13 14 15 17
34 34 33 33 33 33 32 32 32 31 31 30 30 28 28 27 25 25 24 23 23 23 23 23 22 23 22 23 24 26 28 29 30 32 33 34 35 35 34 34 33 32 31 30 30 32 32 32 32 33 33 33 32 31 30 30 32 32 31 31 27 25 23 22 21 23 23 22 19 19 17 11 12 15 15 14 11 8 9 10 10 11 10 13 13
34 33 33 33 32 32 32 31 30 31 30 30 29 28 27 26 26 25 24 23 23 22 22 22 21 21 21 22 24 26 28 28 29 30 32 32 33 34 33 32 32 32 30 28 30 30 31 30 32 33 31 32 31 30 29 30 29 30 28 27 24 23 22 22 23 22 20 17 15 13 7 10 12 14 9 9 8 7 9 11 9 10 10 10 9
33 33 32 32 32 32 31 30 30 30 30 30 28 28 27 26 25 24 23 23 22 21 21 21 21 21 20 22 24 25 26 27 28 29 30 31 32 33 33 31 31 30 28 28 29 29 29 31 31 30 29 28 27 25 25 25 24 24 24 22 20 18 21 25 24 17 16 14 11 7 8 8 8 7 7 7 6 7 9 9 9 8 8 8 8
33 32 32 32 31 31 31 30 30 30 29 29 29 28 27 26 25 25 27 24 23 22 22 22 22 22 21 21 22 23 24 25 26 30 30 32 31 31 31 31 30 29 29 29 27 27 28 28 26 26 25 25 23 23 22 21 21 21 20 19 18 15 15 16 20 18 14 11 11 11 10 7 6 7 7 6 7 6 6 7 8 8 7 6 9
33 32 32 32 32 31 31 31 30 30 29 29 28 28 28 29 28 26 25 26 26 26 25 22 23 22 21 22 23 21 22 23 30 31 32 33 34 33 32 32 32 30 30 31 28 26 26 25 24 24 24 23 22 21 21 20 20 18 18 22 17 15 15 16 18 15 9 12 11 10 9 8 6 6 5 6 4 5 8 13 7 7 7 7 8
32 32 32 32 31 31 31 31 31 30 30 29 28 28 28 28 30 30 28 27 27 27 27 26 27 26 23 21 25 26 26 30 32 32 33 33 34 34 33 33 32 31 31 28 25 25 24 23 23 23 22 22 21 21 20 19 18 18 17 16 16 15 16 15 15 11 10 9 7 8 8 9 7 5 6 5 5 4 4 6 7 7 8 8 8
32 32 32 32 32 31 31 31 31 31 30 30 29 28 27 26 27 28 28 29 28 28 28 28 28 27 26 25 24 24 30 32 32 32 33 33 34 33 33 33 33 32 31 29 24 23 23 23 22 21 21 20 20 20 19 18 17 16 15 12 14 14 15 15 13 11 10 9 9 7 7 6 5 5 5 5 6 4 4 5 6 6 7 7 9
33 32 32 32 31 31 31 31 31 31 30 30 30 29 28 26 24 24 27 30 29 28 29 29 29 28 28 27 27 26 30 31 32 32 33 33 34 33 33 33 33 32 31 26 23 23 22 22 21 21 20 20 20 19 18 17 16 15 14 14 14 13 14 11 11 8 9 9 8 7 6 5 4 5 6 5 5 4 4 5 5 5 6 7 8
33 32 32 32 31 31 31 31 30 30 30 29 29 28 28 27 26 25 24 25 27 29 30 30 29 29 28 29 28 32 32 32 32 32 33 33 33 33 33 31 32 32 29 24 23 21 21 21 20 20 20 19 19 18 17 16 15 14 12 11 10 7 8 8 8 7 5 9 8 4 4 4 5 4 3 2 4 3 4 6 5 5 6 7 7
32 31 30 30 30 30 30 29 29 29 28 28 27 27 27 27 26 25 24 23 23 23 24 27 29 28 27 28 29 34 33 32 32 32 33 33 33 33 32 29 29 29 28 25 23 21 21 20 20 19 19 18 18 17 16 15 14 13 12 10 6 5 5 6 7 5 5 5 4 4 4 4 3 4 4 3 3 3 4 4 5 6 6 7 8
30 30 30 30 29 29 28 28 28 27 27 26 27 27 26 26 25 24 24 24 24 23 24 25 26 28 29 30 34 33 32 32 32 32 32 32 32 32 27 27 27 27 27 25 23 22 21 20 20 19 19 18 17 16 16 14 13 12 11 10 7 6 6 6 6 5 4 5 5 5 6 4 4 4 3 3 3 3 3 4 4 6 7 7 7
28 28 28 28 28 27 27 27 27 27 27 25 25 24 24 23 23 23 23 24 23 24 25 26 27 28 28 29 30 32 33 33 32 32 32 32 32 29 25 26 25 26 26 25 24 22 21 20 20 19 18 17 16 15 14 13 12 11 13 10 9 7 7 7 6 6 5 5 4 5 5 5 4 4 4 3 4 4 4 5 6 7 7 7 9
27 27 27 27 26 26 25 25 25 26 24 23 22 21 21 21 22 21 22 22 22 23 24 25 26 24 25 27 30 30 30 32 32 31 31 31 29 25 24 24 25 25 25 25 24 23 22 21 20 18 17 16 15 14 13 12 11 10 9 8 8 8 11 10 11 8 6 5 5 4 5 5 4 4 5 4 3 4 5 6 6 6 7 8 8
26 27 27 26 26 23 23 23 23 22 21 21 20 20 20 20 20 20 20 21 22 23 23 23 23 24 25 27 27 29 30 28 28 27 28 28 27 25 24 24 24 24 24 24 23 22 21 20 18 17 16 15 14 13 13 12 10 9 9 8 7 7 11 9 8 8 6 6 5 5 5 5 5 5 6 6 5 5 5 6 6 6 6 6 7
23 23 25 25 22 22 21 21 20 20 19 19 19 19 19 19 19 19 19 20 21 22 22 22 22 24 25 26 27 27 26 26 26 26 27 27 27 26 24 24 23 23 21 20 19 19 18 17 16 16 15 15 14 13 12 11 9 9 8 8 7 6 7 9 8 7 7 6 6 6 6 6 6 7 7 7 7 6 6 6 6 7 7 6 7
20 20 21 23 22 20 19 19 18 18 18 18 17 17 17 18 18 18 18 19 19 20 20 20 21 23 24 25 28 27 25 24 25 25 26 26 25 24 24 23 22 21 20 18 18 17 17 15 15 15 14 14 13 12 11 10 9 8 7 7 7 7 7 7 8 7 7 7 7 7 7 7 7 7 7 7 10 9 8 8 7 7 8 8 8
17 17 17 17 17 17 16 16 16 16 16 16 16 16 16 17 17 17 17 17 17 17 17 18 20 22 25 27 27 27 23 23 22 21 21 21 21 19 18 18 19 20 20 19 18 17 16 15 14 14 13 12 12 11 11 10 9 8 8 7 7 7 7 7 7 8 8 8 8 8 8 8 8 8 8 11 8 8 8 8 8 8 8 8 8
15 14 14 14 14 14 13 13 14 13 13 14 14 15 15 15 15 15 15 15 15 16 17 19 21 23 24 25 23 22 18 18 18 17 17 16 15 15 15 14 14 14 14 15 16 16 16 15 14 14 13 12 12 11 10 10 9 9 9 8 8 8 8 8 8 8 8 8 8 9 9 8 9 9 9 9 9 8 7 7 7 8 8 7 7
13 13 13 12 12 12 12 12 12 12 12 12 13 12 12 12 12 12 12 13 14 15 16 16 16 16 15 16 16 15 15 14 14 14 13 13 12 11 11 11 11 11 11 11 11 12 12 12 11 11 11 11 11 11 11 11 10 10 9 9 9 9 9 9 8 8 8 8 8 8 8 8 8 8 8 8 8 7 7 7 7 6 6 6 7
11 10 10 10 10 11 11 11 11 11 11 11 11 10 11 10 10 10 11 11 10 11 10 10 10 10 10 10 11 11 11 11 11 11 10 10 10 9 9 9 9 9 9 10 10 11 11 11 10 10 10 10 10 10 10 11 11 11 10 10 10 9 9 10 10 10 10 9 8 8 8 7 7 7 7 7 7 7 7 6 6 8 6 6 6
8 8 8 8 7 8 7 7 8 7 6 6 6 6 7 8 8 8 8 7 7 7 7 7 7 7 7 7 8 8 8 8 9 9 9 9 9 9 9 9 9 9 9 10 10 10 10 10 10 10 10 10 10 10 11 11 11 11 11 11 11 10 10 11 10 10 10 9 9 8 7 7 7 7 7 6 6 6 6 6 6 6 5 5 4
6 6 6 6 6 6 6 5 5 5 5 5 4 4 4 4 5 5 5 5 5 5 5 5 5 5 6 6 6 6 7 7 7 7 7 7 8 7 7 7 7 7 7 8 8 8 8 8 8 8 8 8 8 9 10 10 10 10 10 10 10 10 9 9 9 9 9 9 8 8 7 7 6 6 7 7 6 6 6 5 5 5 5 5 4
3 3 3 4 4 3 3 3 3 5 3 3 3 3 3 3 3 3 3 3 3 4 4 4 4 5 5 5 6 6 6 6 6 6 6 6 6 7 6 6 6 6 6 6 5 5 6 6 6 6 6 5 5 5 6 6 6 6 7 9 8 8 9 9 8 7 7 8 8 8 7 7 6 6 6 6 6 6 5 5 5 5 4 4 5
-1 -0 -0 0 0 1 1 1 2 1 1 1 1 1 1 1 1 1 1 1 1 1 1 1 1 2 2 2 3 3 3 3 2 2 2 2 2 2 2 2 2 2 2 2 2 2 2 2 2 2 2 1 2 2 2 3 3 3 2 2 6 9 8 9 9 8 8 8 7 7 7 7 6 6 6 6 6 5 5 4 3 2 2 2 2
-4 -3 -3 -3 -3 -3 -3 -2 -3 -3 -2 -2 -2 -2 -2 -2 -3 -3 -3 -3 -3 -3 -3 -2 -2 -2 -2 -1 -1 -1 -1 -1 -2 -2 -2 -2 -2 -2 -2 -1 -2 -2 -2 -2 -2 -3 -2 -2 -1 -0 -0 -1 -2 -2 -3 -2 -0 2 2 3 8 7 7 7 8 9 10 8 8 7 6 6 6 6 6 6 5 4 3 2 2 2 2 1 1
-5 -6 -6 -6 -6 -6 -6 -6 -6 -6 -6 -6 -6 -6 -6 -6 -6 -6 -6 -6 -6 -6 -5 -5 -5 -5 -5 -4 -4 -4 -4 -4 -5 -5 -5 -5 -5 -5 -5 -5 -5 -5 -6 -6 -6 -6 -7 -7 -6 -6 -5 -4 -4 -4 -5 -5 -4 1 5 7 7 7 7 7 7 7 9 10 7 6 6 6 6 5 5 5 4 3 3 3 2 1 1 0 0